Location: Unspecified
(0.0000°N, 0.0000°E)
Time: 12:06:20
(UTC+00:00)

ATLAS 5 CENTAUR DEB - Visible Passes

Search period start: 07 February 2026 00:00
Search period end: 17 February 2026 00:00
Orbit: 8250 x 36266 km, 19.3° (Epoch: 31 January)

Date Brightness Start Highest point End Pass type
(mag) Time Alt. Az. Time Alt. Az. Time Alt. Az.
7 Feb ? 05:27:01 10° W 08:09:19 58° N 08:57:41 10° ENE visible
8 Feb ? 10:49:14 10° WNW 20:59:21 34° ESE 23:15:20 10° E visible
9 Feb ? 14:11:12 10° WNW 00:57:49 79° SE 02:54:42 10° ENE visible
10 Feb ? 17:36:04 10° W 20:22:45 56° SW 06:14:37 10° ENE daylight
11 Feb ? 22:20:07 10° WSW 23:38:19 14° WSW 01:29:57 10° WSW visible
13 Feb ? 11:35:09 10° WNW 21:43:54 48° ESE 00:10:43 10° E visible
14 Feb ? 14:54:53 10° WNW 16:17:30 77° SSW 03:38:44 10° ENE visible
15 Feb ? 18:27:41 10° W 21:11:59 43° WSW 06:59:47 10° ENE daylight
